This is the latest recevied weather packets stored in our database for station/object SV9TNF-57. If no packets are shown the sender has not sent any weather packets the latest 10 day(s).
| Time | Temp. | Humidity | Pressure | Rain* | Wind** | Luminosity | Snow |
|---|---|---|---|---|---|---|---|
| 1787985403 | 26.11° C | 58% | 996.5 hPa | 0 mm | 7.6 m/s, 279° | - | - |
| 1787985103 | 26.11° C | 59% | 996.5 hPa | 0 mm | 5.36 m/s, 350° | - | - |
| 1787984803 | 25.56° C | 59% | 996.3 hPa | 0 mm | 12.07 m/s, 311° | - | - |
| 1787984503 | 25.56° C | 59% | 996.3 hPa | 0 mm | 16.54 m/s, 312° | - | - |
| 1787984203 | 25.56° C | 59% | 996.3 hPa | 0 mm | 14.75 m/s, 347° | - | - |
| 1787983903 | 25.56° C | 59% | 996.4 hPa | 0 mm | 12.96 m/s, 317° | - | - |
| 1787983603 | 25.56° C | 59% | 996.3 hPa | 0 mm | 5.36 m/s, 76° | - | - |
| 1787983302 | 25.56° C | 59% | 996.4 hPa | 0 mm | 12.07 m/s, 328° | - | - |
| 1787983003 | 25.56° C | 59% | 996.4 hPa | 0 mm | 5.36 m/s, 56° | - | - |
| 1787982703 | 25.56° C | 58% | 996.2 hPa | 0 mm | 10.28 m/s, 359° | - | - |
| 1787982402 | 25.56° C | 58% | 996.5 hPa | 0 mm | 6.71 m/s, 50° | - | - |
| 1787982102 | 25.56° C | 55% | 996.3 hPa | 0 mm | 20.56 m/s, 335° | - | - |
| 1787981802 | 25.56° C | 57% | 996.4 hPa | 0 mm | 8.05 m/s, 283° | - | - |
| 1787981502 | 25.56° C | 56% | 996 hPa | 0 mm | 9.83 m/s, 24° | - | - |
| 1787981202 | 25.56° C | 62% | 996.2 hPa | 0 mm | 7.15 m/s, 325° | - | - |
| 1787980902 | 25.56° C | 63% | 996.2 hPa | 0 mm | 14.31 m/s, 9° | - | - |
| 1787980602 | 25.56° C | 66% | 996.1 hPa | 0 mm | 8.49 m/s, 318° | - | - |
| 1787980302 | 25.56° C | 66% | 996.2 hPa | 0 mm | 2.68 m/s, 356° | - | - |
| 1787980002 | 25° C | 66% | 996 hPa | 0 mm | 6.71 m/s, 0° | - | - |
| 1787979701 | 25° C | 67% | 996.2 hPa | 0 mm | 5.36 m/s, 81° | - | - |
| 1787979401 | 25° C | 70% | 996.2 hPa | 0 mm | 9.83 m/s, 314° | - | - |
| 1787979101 | 25° C | 72% | 995.9 hPa | 0 mm | 8.49 m/s, 342° | - | - |
| 1787978801 | 25° C | 74% | 996.2 hPa | 0 mm | 8.05 m/s, 346° | - | - |
| 1787978501 | 25° C | 74% | 995.8 hPa | 0 mm | 15.65 m/s, 9° | - | - |
| 1787978201 | 25° C | 75% | 995.7 hPa | 0 mm | 5.81 m/s, 322° | - | - |
* Rain latest hour (hover to see other rain measurements)
** Current wind speed in m/s (hover to see current wind gust speed)